Rechercher aéroport 
image banner adimage banner adimage banner ad
image banner ad

S51 - Andy Mc Beth

Situé à Klamath Glen, United States

ICAO - S51, IATA -

Données fournies par Airmate  

Information générale

Coordonnées: N41°30'43" W123°59'44"
Élévation : 42 feet MSL.
Variation magnétique : 18° East
Voir autres Aéroports à California

Données opérationnelles

Special qualification required
Heure actuelle UTC:
Heure actuelle locale:
Météo à : KCEC - Jack Mc Namara Field ( 36 km )
METAR: KCEC 260911Z AUTO 15004KT 8SM OVC014 14/11 A3002 RMK AO2 T01390111
TAF: KCEC 260540Z 2606/2706 16005KT P6SM OVC014 FM261000 17004KT P6SM OVC009 TEMPO 2612/2616 5SM BR OVC006 FM261800 16006KT P6SM OVC010 FM262100 17010KT P6SM SCT015 FM270400 17012KT P6SM -RA SCT015 OVC040
Voir NOTAMs / SUP AIP / TFR affectant cet aéroport [VIEW]
Fréquences de communication: [VIEW]

Pistes:

Identifiant RWYQFULongueur (ft)Largeur (ft)SurfaceLDA (ft)
11240050ASPH
29240050ASPH

Coordonnées de l'aéroport

Adresse: Klamath Glen United States

Vue satellite de S51